W8DRH-13 Weather Reports


Display with metric or nautical units.
time (UTC)temp
F
wind
direction
speed
MPH
gust
MPH
rain 1hr
in
rain 24hr
in
rain mn
in
humidity
%
barometer
mb
20260502221516 44 24 0.0 0.0 0.00 0.00 0.00 70 1014.5
20260502221014 44 59 0.0 0.0 0.00 0.00 0.00 71 1014.5
20260502220509 44 81 0.0 1.0 0.00 0.00 0.00 71 1014.6
20260502220006 44 108 0.0 0.0 0.00 0.00 0.00 72 1014.5
20260502215504 44 123 0.0 0.0 0.00 0.00 0.00 72 1014.4
20260502215000 44 124 0.0 0.0 0.00 0.00 0.00 73 1014.4
20260502214457 44 121 0.0 0.0 0.00 0.00 0.00 73 1014.5
20260502213955 44 99 0.0 0.0 0.00 0.00 0.00 73 1014.5
20260502213451 44 66 0.0 0.0 0.00 0.00 0.00 73 1014.4
20260502212949 44 78 0.0 0.0 0.00 0.00 0.00 72 1014.5
20260502212448 44 77 0.0 0.0 0.00 0.00 0.00 72 1014.4
20260502211945 44 78 0.0 0.0 0.00 0.00 0.00 72 1014.5
20260502211440 44 77 0.0 0.0 0.00 0.00 0.00 73 1014.4
20260502210938 43 77 0.0 0.0 0.00 0.00 0.00 73 1014.4
20260502210434 43 75 0.0 0.0 0.00 0.00 0.00 73 1014.1
20260502205932 43 75 0.0 0.0 0.00 0.00 0.00 73 1014.3
20260502205428 43 123 2.0 2.0 0.00 0.00 0.00 73 1014.3
20260502204925 43 47 0.0 1.0 0.00 0.00 0.00 74 1014.3
20260502204422 43 104 0.0 0.0 0.00 0.00 0.00 74 1014.4
20260502203920 43 57 2.0 3.0 0.00 0.00 0.00 74 1014.5
20260502203417 44 89 0.0 0.0 0.00 0.00 0.00 75 1014.4
20260502202913 43 83 1.0 2.0 0.00 0.00 0.00 76 1014.3
20260502202410 43 83 3.0 6.0 0.00 0.00 0.00 76 1014.4
20260502201908 43 120 0.0 1.0 0.00 0.00 0.00 76 1014.5
20260502201404 42 63 1.0 2.0 0.00 0.00 0.00 76 1014.6
20260502200901 43 100 2.0 3.0 0.00 0.00 0.00 76 1014.8
20260502200356 43 79 2.0 4.0 0.00 0.00 0.00 76 1014.6
20260502195855 43 36 7.0 8.0 0.00 0.00 0.00 75 1014.8
20260502195351 43 86 6.0 8.0 0.00 0.00 0.00 74 1014.6
20260502194848 44 91 3.0 7.0 0.00 0.00 0.00 73 1014.8
20260502194344 44 33 4.0 4.0 0.00 0.00 0.00 71 1014.6
20260502193840 44 30 0.0 0.0 0.00 0.00 0.00 72 1014.8
20260502193338 44 34 0.0 0.0 0.00 0.00 0.00 71 1014.9
20260502192833 44 41 0.0 0.0 0.00 0.00 0.00 70 1014.9
20260502192330 43 59 0.0 0.0 0.00 0.00 0.00 73 1014.9
20260502191827 43 77 0.0 0.0 0.00 0.00 0.00 74 1014.8
20260502191326 43 50 4.0 4.0 0.00 0.00 0.00 73 1015.0
20260502190822 43 61 0.0 0.0 0.00 0.00 0.00 73 1015.1
20260502190319 43 97 1.0 2.0 0.00 0.00 0.00 73 1015.2
20260502185814 43 130 0.0 2.0 0.00 0.00 0.00 75 1015.0
20260502185306 42 44 2.0 2.0 0.00 0.00 0.00 75 1015.2
20260502184802 42 28 4.0 6.0 0.00 0.00 0.00 74 1015.1
20260502184258 42 20 4.0 6.0 0.00 0.00 0.00 77 1015.3
20260502183755 42 57 3.0 4.0 0.00 0.00 0.00 78 1015.1
20260502183251 42 47 2.0 3.0 0.00 0.00 0.00 78 1015.3
20260502182746 44 58 6.0 7.0 0.00 0.00 0.00 76 1015.1
20260502182242 44 27 5.0 7.0 0.00 0.00 0.00 74 1015.0
20260502181738 44 33 4.0 4.0 0.00 0.00 0.00 72 1015.0
20260502181237 44 21 4.0 4.0 0.00 0.00 0.00 72 1015.2
20260502180735 44 355 0.0 0.0 0.00 0.00 0.00 71 1015.3
20260502180232 44 70 0.0 0.0 0.00 0.00 0.00 71 1015.2
20260502170150 41 71 1.0 2.0 0.00 0.00 0.00 80 1015.4
20260502164137 43 350 3.0 3.0 0.00 0.00 0.00 72 1015.5
20260502163633 43 342 3.0 6.0 0.00 0.00 0.00 71 1015.4
20260502163129 44 289 8.0 9.0 0.00 0.00 0.00 71 1015.3
20260502162626 44 337 5.0 8.0 0.00 0.00 0.00 69 1015.6
20260502162123 45 285 7.0 8.0 0.00 0.00 0.00 67 1015.5
20260502161621 45 18 2.0 2.0 0.00 0.00 0.00 70 1015.6
20260502161118 44 331 3.0 3.0 0.00 0.00 0.00 72 1015.4
20260502160616 43 354 0.0 0.0 0.00 0.00 0.00 71 1015.5
20260502160114 43 302 4.0 4.0 0.00 0.00 0.00 71 1015.4
20260502152028 41 306 3.0 3.0 0.00 0.00 0.00 80 1015.5
20260502151525 41 301 4.0 4.0 0.00 0.00 0.00 80 1015.5
20260502151022 41 33 2.0 3.0 0.00 0.00 0.00 81 1015.4
20260502150520 41 280 3.0 3.0 0.00 0.00 0.00 82 1015.3
20260502130405 39 86 0.0 1.0 0.00 0.00 0.00 84 1014.9
20260502123347 37 72 1.0 1.0 0.00 0.00 0.00 84 1014.6
20260502122845 37 107 1.0 2.0 0.00 0.00 0.00 84 1015.0
20260502122340 37 354 3.0 3.0 0.00 0.00 0.00 83 1014.5
20260502121839 36 51 2.0 2.0 0.00 0.00 0.00 84 1014.4
20260502121336 36 289 4.0 7.0 0.00 0.00 0.00 83 1014.4
20260502120833 36 40 1.0 2.0 0.00 0.00 0.00 83 1014.4
20260502120329 36 305 3.0 3.0 0.00 0.00 0.00 83 1014.8
20260502115827 35 301 4.0 4.0 0.00 0.00 0.00 83 1014.3
20260502115324 35 291 4.0 4.0 0.00 0.00 0.00 83 1014.3
20260502114820 35 339 3.0 4.0 0.00 0.00 0.00 83 1014.4
20260502114317 35 307 7.0 8.0 0.00 0.00 0.00 83 1014.5
20260502113814 35 317 4.0 4.0 0.00 0.00 0.00 83 1014.5
20260502113312 34 283 4.0 4.0 0.00 0.00 0.00 84 1014.5
20260502112810 34 301 3.0 3.0 0.00 0.00 0.00 84 1014.3
20260502112307 34 311 3.0 3.0 0.00 0.00 0.00 84 1014.5
20260502111804 34 303 4.0 4.0 0.00 0.00 0.00 84 1014.4
20260502111301 34 297 5.0 6.0 0.00 0.00 0.00 84 1014.3
20260502110759 34 290 4.0 4.0 0.00 0.00 0.00 85 1014.4
20260502110257 34 331 3.0 3.0 0.00 0.00 0.00 85 1014.1
20260502105754 33 283 4.0 6.0 0.00 0.00 0.00 85 1014.1
20260502105250 33 292 4.0 6.0 0.00 0.00 0.00 85 1014.0
20260502104748 33 298 3.0 3.0 0.00 0.00 0.00 86 1014.4
20260502104246 33 289 4.0 4.0 0.00 0.00 0.00 85 1014.2
20260502103743 33 315 2.0 3.0 0.00 0.00 0.00 85 1014.0
20260502103240 34 292 3.0 4.0 0.00 0.00 0.00 85 1014.0
20260502102738 34 292 3.0 3.0 0.00 0.00 0.00 84 1014.2
20260502102233 34 297 4.0 4.0 0.00 0.00 0.00 84 1014.1
20260502101732 34 288 4.0 4.0 0.00 0.00 0.00 84 1014.2
20260502101230 34 294 3.0 3.0 0.00 0.00 0.00 84 1014.1
20260502100727 34 291 4.0 4.0 0.00 0.00 0.00 84 1014.2
20260502100226 34 279 5.0 6.0 0.00 0.00 0.00 84 1014.0
20260502091200 35 312 4.0 4.0 0.00 0.00 0.00 83 1014.0
20260502090657 35 296 2.0 3.0 0.00 0.00 0.00 83 1014.1
20260502090154 35 327 3.0 6.0 0.00 0.00 0.00 83 1014.0
20260502071044 37 292 4.0 6.0 0.00 0.00 0.00 83 1014.0
20260502070542 37 292 4.0 4.0 0.00 0.00 0.00 83 1013.8
20260502070039 37 292 4.0 4.0 0.00 0.00 0.00 83 1013.8
20260502065538 38 284 3.0 3.0 0.00 0.00 0.00 83 1014.1
20260502065035 38 278 3.0 3.0 0.00 0.00 0.00 82 1013.6
20260502064533 38 305 2.0 3.0 0.00 0.00 0.00 82 1013.9
20260502064030 38 311 3.0 3.0 0.00 0.00 0.00 81 1014.0
20260502063528 38 293 4.0 4.0 0.00 0.00 0.00 81 1013.8
20260502063025 38 290 5.0 6.0 0.00 0.00 0.00 80 1013.8
20260502062522 39 294 6.0 7.0 0.00 0.00 0.00 81 1014.1
20260502062021 39 285 6.0 6.0 0.00 0.00 0.00 81 1014.0
20260502061518 39 282 6.0 6.0 0.00 0.00 0.00 81 1014.2
20260502061015 39 306 6.0 7.0 0.00 0.00 0.00 82 1014.1
20260502060509 39 278 3.0 4.0 0.00 0.00 0.00 83 1014.2
20260502060007 39 293 4.0 4.0 0.00 0.00 0.00 83 1014.2
20260502055459 39 299 6.0 7.0 0.00 0.00 0.00 84 1014.2
20260502054958 39 272 4.0 4.0 0.00 0.00 0.00 84 1014.1
20260502054455 39 279 6.0 7.0 0.00 0.00 0.00 85 1013.9
20260502053952 39 289 5.0 6.0 0.00 0.00 0.00 85 1014.1
20260502053449 39 296 4.0 4.0 0.00 0.00 0.00 86 1014.0
20260502052947 40 288 4.0 6.0 0.00 0.00 0.00 88 1014.2
20260502052445 40 303 3.0 4.0 0.00 0.00 0.00 89 1014.2
20260502051944 40 285 4.0 4.0 0.00 0.00 0.00 90 1014.5
20260502051441 40 287 2.0 3.0 0.00 0.00 0.00 90 1014.1
20260502050938 40 266 3.0 3.0 0.00 0.00 0.00 90 1014.2
20260502050435 40 243 4.0 4.0 0.00 0.00 0.00 91 1014.1
20260502045932 40 282 3.0 3.0 0.00 0.00 0.00 92 1014.0
20260502045428 40 260 5.0 6.0 0.00 0.00 0.00 92 1014.2
20260502044925 40 212 2.0 3.0 0.00 0.00 0.00 92 1014.1
20260502044421 40 259 2.0 2.0 0.00 0.00 0.00 91 1014.0
20260502043918 40 243 2.0 2.0 0.00 0.00 0.00 91 1014.2
20260502043416 41 246 2.0 3.0 0.00 0.00 0.00 91 1014.2
20260502042915 41 232 2.0 3.0 0.00 0.00 0.00 91 1014.1
20260502042413 41 277 4.0 4.0 0.00 0.00 0.00 90 1014.0
20260502041910 41 277 4.0 6.0 0.00 0.00 0.00 90 1014.0
20260502041408 41 242 4.0 4.0 0.00 0.00 0.00 90 1014.3
20260502040905 41 247 3.0 3.0 0.00 0.00 0.00 90 1014.2
20260502040401 41 288 2.0 2.0 0.00 0.00 0.00 90 1014.1
20260502035857 42 282 3.0 3.0 0.00 0.38 0.38 89 1014.1
20260502035354 42 278 3.0 4.0 0.00 0.38 0.38 89 1014.1
20260502034851 42 227 4.0 4.0 0.00 0.38 0.38 89 1014.0
20260502034350 42 318 2.0 3.0 0.00 0.38 0.38 89 1014.2
20260502033848 42 254 2.0 3.0 0.00 0.38 0.38 89 1014.3
20260502033345 42 258 4.0 4.0 0.00 0.38 0.38 89 1014.1
20260502032842 42 257 4.0 4.0 0.00 0.38 0.38 89 1014.2
20260502032338 42 253 4.0 4.0 0.00 0.38 0.38 89 1014.3
20260502031836 42 232 3.0 3.0 0.00 0.38 0.38 90 1014.2
20260502031334 42 225 2.0 3.0 0.00 0.38 0.38 90 1014.2
20260502030832 42 264 5.0 6.0 0.00 0.38 0.38 90 1014.1
20260502030330 42 269 4.0 4.0 0.00 0.38 0.38 90 1014.0
20260502025826 42 255 2.0 3.0 0.00 0.38 0.38 90 1014.2
20260502025324 42 254 3.0 3.0 0.00 0.38 0.38 90 1014.0
20260502024822 41 242 2.0 3.0 0.00 0.38 0.38 91 1014.0
20260502024320 41 251 2.0 3.0 0.00 0.38 0.38 91 1014.0
20260502023817 42 203 1.0 2.0 0.00 0.38 0.38 91 1013.8
20260502023315 42 172 1.0 2.0 0.00 0.38 0.38 90 1013.8
20260502022813 42 209 2.0 2.0 0.00 0.38 0.38 90 1013.7
20260502022309 42 220 1.0 1.0 0.00 0.38 0.38 90 1013.8
20260502021806 42 279 2.0 3.0 0.00 0.38 0.38 90 1013.8
20260502021303 42 250 2.0 3.0 0.00 0.38 0.38 90 1013.7
20260502020800 42 224 2.0 2.0 0.00 0.38 0.38 90 1013.6
20260502020257 42 196 2.0 2.0 0.00 0.38 0.38 90 1013.5
20260502015755 42 266 3.0 3.0 0.00 0.38 0.38 89 1013.7
20260502015251 42 179 2.0 2.0 0.00 0.38 0.38 89 1013.8
20260502014749 43 237 3.0 3.0 0.00 0.38 0.38 88 1013.6
20260502014245 43 220 3.0 3.0 0.00 0.38 0.38 88 1013.5
20260502013742 43 227 2.0 3.0 0.00 0.38 0.38 87 1013.4
20260502013237 43 269 3.0 4.0 0.00 0.38 0.38 87 1013.6
20260502012734 43 255 3.0 3.0 0.00 0.38 0.38 87 1013.3
20260502012232 43 300 5.0 6.0 0.00 0.38 0.38 87 1013.3
20260502011729 43 265 4.0 6.0 0.00 0.38 0.38 87 1013.4
20260502011225 43 283 5.0 6.0 0.00 0.38 0.38 88 1013.3
20260502010723 43 301 3.0 3.0 0.00 0.38 0.38 88 1013.3
20260502010218 43 297 2.0 2.0 0.00 0.38 0.38 89 1013.2
20260502005716 43 339 2.0 2.0 0.00 0.38 0.38 88 1013.2
20260502005214 43 308 2.0 2.0 0.00 0.38 0.38 88 1013.1
20260502004710 43 290 2.0 3.0 0.00 0.38 0.38 88 1013.3
20260502004206 43 261 3.0 4.0 0.00 0.38 0.38 88 1013.4
20260502003704 43 283 2.0 2.0 0.00 0.38 0.38 89 1013.1
20260502003202 43 284 2.0 2.0 0.00 0.38 0.38 88 1013.2
20260502002657 42 1 0.0 0.0 0.00 0.38 0.38 89 1013.1
20260502002155 42 348 0.0 0.0 0.00 0.38 0.38 89 1012.9
20260502001652 42 352 0.0 0.0 0.00 0.38 0.38 89 1013.2
20260502001150 42 332 1.0 1.0 0.00 0.38 0.38 89 1013.0
20260502000647 42 297 2.0 2.0 0.00 0.38 0.38 89 1012.9
20260502000145 42 16 0.0 0.0 0.00 0.38 0.38 89 1012.8
20260501235641 42 11 0.0 0.0 0.00 0.38 0.38 90 1012.5
20260501235137 42 53 0.0 0.0 0.00 0.38 0.38 90 1012.8
20260501234632 42 52 0.0 0.0 0.00 0.38 0.38 89 1012.3
20260501234130 42 342 2.0 2.0 0.00 0.38 0.38 89 1012.4
20260501233628 42 82 0.0 0.0 0.00 0.38 0.38 89 1012.3
20260501233125 42 16 1.0 2.0 0.00 0.38 0.38 89 1012.4
20260501232621 42 39 0.0 0.0 0.14 0.38 0.38 89 1012.5
20260501232119 42 181 2.0 2.0 0.14 0.38 0.38 89 1012.5
20260501231616 43 93 1.0 2.0 0.05 0.36 0.36 88 1012.6
20260501231114 43 49 2.0 3.0 0.12 0.36 0.36 87 1012.5
20260501230612 43 16 2.0 4.0 0.07 0.35 0.35 86 1012.6
20260501230110 43 21 7.0 9.0 0.05 0.34 0.34 85 1012.5
20260501225608 45 46 1.0 2.0 0.05 0.34 0.34 85 1012.5
20260501225103 45 63 1.0 1.0 0.00 0.33 0.33 85 1012.4
20260501224601 45 33 4.0 4.0 0.00 0.33 0.33 84 1012.5
20260501224058 45 44 2.0 3.0 0.00 0.33 0.33 84 1012.6
20260501223554 45 37 2.0 3.0 0.00 0.33 0.33 84 1012.5
20260501223050 45 29 1.0 1.0 0.00 0.33 0.33 83 1012.5
20260501222547 46 26 2.0 3.0 0.00 0.33 0.33 83 1012.4
20260501222044 46 61 1.0 2.0 0.00 0.33 0.33 83 1012.5